Date String (YYYY-MM-DD hh:mm:ss) UTC,Instrument flags,absolute air pressure of the measurement (hPa),sample flow rate (lpm),inlet stack bypass flow (lpm),air temperature of the measurement (°C),ambient temperature measured by the external sensor (°C),aerosol sample conditioner tube jacket temperature (°C),OPC LED temperature (°C),internal box temperature (°C),relative humidity of the measurement (%),span deviation,mass concentration of particles derived from Lorenz-Mie calculation of OPC scattering (μg/m³),mass concentration of particles derived from Lorenz-Mie calculation of OPC scattering (μg/m³),mass concentration of particles derived from Lorenz-Mie calculation of OPC scattering (μg/m³)
DateTimeUTC,F1_M11,P_M11,Q1_M11,Q2_M11,T1_M11,T2_M11,T3_M11,T4_M11,T5_M11,U1_M11,ZSPAN_M11,X0_M11,X2_M11,X1_M11
2023-09-23 11:00:00,SystemResetWarning,0828.6,5.00,000.00,027.4,025.7,000.0,036.0,028.9,13.8,0001.3,0009.57,0004.60,0004.10
2023-09-23 11:01:00,SystemResetWarning,0828.6,5.01,000.00,027.4,025.7,000.0,036.0,028.9,13.1,0000.0,0009.54,0004.58,0004.09
2023-09-23 11:02:00,SystemResetWarning,0828.6,5.00,000.00,027.4,025.7,000.0,036.0,028.9,13.1,0000.8,0009.59,0004.59,0004.09
2023-09-23 11:03:00,SystemResetWarning,0828.6,5.00,000.00,027.3,025.6,000.0,036.0,028.9,13.6,0000.0,0009.69,0004.60,0004.09
2023-09-23 11:04:00,SystemResetWarning,0828.6,5.00,000.00,027.3,025.6,000.0,035.9,028.8,12.8,0001.0,0010.30,0004.68,0004.09
2023-09-23 11:05:00,SystemResetWarning,0828.7,5.00,000.00,027.3,025.6,000.0,035.9,028.8,12.8,0004.3,0010.74,0004.72,0004.10
2023-09-23 11:06:00,SystemResetWarning,0828.7,5.00,000.00,027.3,025.7,000.0,035.9,028.8,12.9,0004.5,0010.69,0004.71,0004.12
2023-09-23 11:07:00,SystemResetWarning,0828.6,5.00,000.00,027.3,025.7,000.0,035.9,028.8,12.7,0004.1,0010.76,0004.71,0004.11
2023-09-23 11:08:00,SystemResetWarning,0828.6,5.00,000.00,027.2,025.7,000.0,035.9,028.8,12.5,0003.6,0010.89,0004.74,0004.12
2023-09-23 11:09:00,SystemResetWarning,0828.5,5.00,000.00,027.2,025.6,000.0,035.9,028.8,12.5,0003.6,0010.40,0004.77,0004.13
2023-09-23 11:10:00,SystemResetWarning,0828.6,5.00,000.00,027.2,025.6,000.0,035.8,028.8,12.2,0003.1,0009.60,0004.75,0004.13
2023-09-23 11:11:00,SystemResetWarning,0828.6,5.00,000.00,027.2,025.6,000.0,035.8,028.8,12.1,0002.7,0009.30,0004.76,0004.13
2023-09-23 11:12:00,SystemResetWarning,0828.5,5.00,000.00,027.2,025.6,000.0,035.8,028.7,12.6,0002.2,0009.13,0004.78,0004.13
2023-09-23 11:13:00,SystemResetWarning,0828.4,5.00,000.00,027.2,025.6,000.0,035.8,028.7,12.6,0001.9,0009.04,0004.76,0004.14
2023-09-23 11:14:00,SystemResetWarning,0828.5,5.00,000.00,027.2,025.6,000.0,035.8,028.7,12.5,0001.8,0008.97,0004.76,0004.14
2023-09-23 11:15:00,SystemResetWarning,0828.5,5.00,000.00,027.2,025.6,000.0,035.8,028.7,12.4,0001.7,0008.67,0004.75,0004.13
2023-09-23 11:16:00,SystemResetWarning,0828.6,5.00,000.00,027.2,025.6,000.0,035.8,028.7,12.5,0001.9,0008.61,0004.76,0004.15
2023-09-23 11:17:00,SystemResetWarning,0828.6,5.00,000.00,027.2,025.7,000.0,035.8,028.7,12.4,0001.6,0008.57,0004.76,0004.15
2023-09-23 11:18:00,SystemResetWarning,0828.6,5.00,000.00,027.2,025.7,000.0,035.7,028.7,12.4,0002.0,0008.49,0004.76,0004.15
2023-09-23 11:19:00,SystemResetWarning,0828.6,5.00,000.00,027.2,025.7,000.0,035.7,028.7,12.5,0002.2,0008.44,0004.74,0004.15
2023-09-23 11:20:00,SystemResetWarning,0828.5,5.00,000.00,027.2,025.7,000.0,035.7,028.7,12.6,0001.7,0008.36,0004.72,0004.13
2023-09-23 11:21:00,SystemResetWarning,0828.5,5.00,000.00,027.2,025.7,000.0,035.7,028.7,12.5,0001.4,0008.28,0004.69,0004.12
2023-09-23 11:22:00,SystemResetWarning,0828.6,4.99,000.00,027.2,025.7,000.0,035.7,028.7,12.6,0001.2,0008.25,0004.67,0004.12
2023-09-23 11:23:00,SystemResetWarning,0828.6,5.00,000.00,027.2,025.7,000.0,035.7,028.7,12.4,0001.5,0008.42,0004.65,0004.11
2023-09-23 11:24:00,SystemResetWarning,0828.6,5.00,000.00,027.2,025.7,000.0,035.7,028.7,12.6,0001.4,0008.42,0004.65,0004.11
2023-09-23 11:25:00,SystemResetWarning,0828.5,5.00,000.00,027.2,025.7,000.0,035.7,028.7,12.4,0001.4,0008.42,0004.64,0004.11
2023-09-23 11:26:00,SystemResetWarning,0828.5,5.00,000.00,027.1,025.7,000.0,035.7,028.7,12.6,0001.1,0008.45,0004.60,0004.11
2023-09-23 11:27:00,SystemResetWarning,0828.4,5.00,000.00,027.1,025.7,000.0,035.7,028.7,12.6,0000.1,0008.43,0004.55,0004.08
2023-09-23 11:28:00,SystemResetWarning,0828.4,5.00,000.00,027.1,025.7,000.0,035.7,028.6,12.8,0000.1,0008.56,0004.53,0004.07
2023-09-23 11:29:00,SystemResetWarning,0828.4,5.00,000.00,027.1,025.7,000.0,035.7,028.6,13.0,0000.0,0008.57,0004.53,0004.08
2023-09-23 11:30:00,SystemResetWarning,0828.4,5.00,000.00,027.1,025.7,000.0,035.7,028.6,13.1,0000.0,0008.90,0004.51,0004.08
2023-09-23 11:31:00,SystemResetWarning,0828.3,5.00,000.00,027.1,025.6,000.0,035.6,028.6,13.1,0001.7,0008.89,0004.49,0004.09
2023-09-23 11:32:00,SystemResetWarning,0828.4,5.00,000.00,027.1,025.6,000.0,035.6,028.6,13.1,0001.5,0009.05,0004.53,0004.10
2023-09-23 11:33:00,SystemResetWarning,0828.4,5.01,000.00,027.1,025.5,000.0,035.6,028.6,13.0,0001.4,0009.14,0004.56,0004.09
2023-09-23 11:34:00,SystemResetWarning,0828.4,5.01,000.00,027.1,025.6,000.0,035.6,028.6,12.8,0001.0,0008.81,0004.54,0004.10
2023-09-23 11:35:00,SystemResetWarning,0828.4,5.00,000.00,027.1,025.6,000.0,035.6,028.6,12.5,0001.3,0008.78,0004.53,0004.10
2023-09-23 11:36:00,SystemResetWarning,0828.3,5.00,000.00,027.1,025.5,000.0,035.6,028.6,12.7,0001.7,0008.79,0004.51,0004.10
2023-09-23 11:37:00,SystemResetWarning,0828.3,5.00,000.00,027.0,025.5,000.0,035.6,028.6,12.2,0001.6,0008.99,0004.52,0004.10
2023-09-23 11:38:00,SystemResetWarning,0828.2,5.00,000.00,027.0,025.5,000.0,035.6,028.6,11.8,0000.8,0008.61,0004.53,0004.11
2023-09-23 11:39:00,SystemResetWarning,0828.3,4.99,000.00,027.0,025.5,000.0,035.6,028.5,11.8,0000.7,0008.40,0004.54,0004.12
2023-09-23 11:40:00,SystemResetWarning,0828.4,4.99,000.00,027.0,025.5,000.0,035.6,028.5,12.1,0000.5,0008.39,0004.53,0004.12
2023-09-23 11:41:00,SystemResetWarning,0828.3,5.00,000.00,027.0,025.6,000.0,035.6,028.6,12.2,0000.7,0008.04,0004.54,0004.12
2023-09-23 11:42:00,SystemResetWarning,0828.3,5.00,000.00,027.0,025.6,000.0,035.6,028.5,12.2,0000.6,0008.41,0004.54,0004.11
2023-09-23 11:43:00,SystemResetWarning,0828.2,5.00,000.00,027.0,025.6,000.0,035.6,028.6,12.1,0001.3,0008.65,0004.51,0004.10
2023-09-23 11:44:00,SystemResetWarning,0828.2,5.00,000.00,027.0,025.6,000.0,035.6,028.6,11.9,0001.9,0008.45,0004.47,0004.09
2023-09-23 11:45:00,SystemResetWarning,0828.2,5.01,000.00,027.0,025.6,000.0,035.6,028.6,11.4,0002.6,0008.45,0004.47,0004.08
2023-09-23 11:46:00,SystemResetWarning,0828.2,5.00,000.00,027.0,025.6,000.0,035.6,028.6,11.4,0002.5,0008.70,0004.47,0004.07
2023-09-23 11:47:00,SystemResetWarning,0828.2,5.00,000.00,027.0,025.6,000.0,035.6,028.5,11.4,0001.5,0008.81,0004.46,0004.06
2023-09-23 11:48:00,SystemResetWarning,0828.2,4.99,000.00,027.1,025.7,000.0,035.6,028.6,11.7,0001.8,0008.90,0004.45,0004.06
2023-09-23 11:49:00,SystemResetWarning,0828.1,5.00,000.00,027.0,025.6,000.0,035.5,028.6,11.9,0002.6,0008.78,0004.45,0004.05
2023-09-23 11:50:00,SystemResetWarning,0828.1,5.01,000.00,027.0,025.6,000.0,035.5,028.5,11.6,0002.9,0008.80,0004.46,0004.06
2023-09-23 11:51:00,SystemResetWarning,0828.0,5.00,000.00,027.0,025.6,000.0,035.5,028.5,11.6,0002.9,0008.83,0004.46,0004.05
2023-09-23 11:52:00,SystemResetWarning,0828.0,5.00,000.00,027.0,025.6,000.0,035.5,028.5,11.5,0001.1,0008.82,0004.47,0004.06
2023-09-23 11:53:00,SystemResetWarning,0827.8,5.00,000.00,027.0,025.6,000.0,035.5,028.5,11.4,0002.0,0008.65,0004.49,0004.07
2023-09-23 11:54:00,SystemResetWarning,0827.8,5.00,000.00,027.0,025.6,000.0,035.5,028.5,11.4,0002.7,0008.42,0004.51,0004.08
2023-09-23 11:55:00,SystemResetWarning,0827.8,5.01,000.00,027.0,025.6,000.0,035.5,028.5,11.2,0002.2,0008.67,0004.54,0004.09
2023-09-23 11:56:00,SystemResetWarning,0827.8,5.00,000.00,027.0,025.6,000.0,035.5,028.5,11.2,0001.5,0008.98,0004.56,0004.11
2023-09-23 11:57:00,SystemResetWarning,0827.7,5.00,000.00,027.0,025.5,000.0,035.5,028.5,11.0,0001.6,0009.22,0004.56,0004.12
2023-09-23 11:58:00,SystemResetWarning,0827.8,4.99,000.00,027.0,025.5,000.0,035.5,028.5,11.2,0002.4,0009.18,0004.59,0004.14
2023-09-23 11:59:00,SystemResetWarning,0827.8,4.99,000.00,027.0,025.5,000.0,035.5,028.5,11.2,0002.2,0008.89,0004.60,0004.15
